FW3192 Weather Reports


time (UTC)temp
C
wind
direction
speed
KPH
gust
KPH
rain 1hr
cm
rain 24hr
cm
rain mn
cm
humidity
%
barometer
mb
20260509001531 15 159 1.6 8.0 0.00 0.00 0.00 86 1029.8
20260509000028 15 126 0.0 4.8 0.00 0.00 0.00 86 1029.9
20260508234526 15 2 0.0 0.0 0.00 0.00 0.00 89 1030.0
20260508233021 14 44 0.0 1.6 0.00 0.00 0.00 92 1029.9
20260508231517 13 3 0.0 1.6 0.00 0.00 0.00 93 1029.9
20260508230018 12 334 0.0 3.2 0.00 0.00 0.00 94 1029.8
20260508224509 11 16 0.0 4.8 0.00 0.00 0.00 95 1029.7
20260508223052 11 36 0.0 1.6 0.00 0.00 0.00 94 1029.5
20260508221555 10 34 0.0 0.0 0.00 0.00 0.00 94 1029.5
20260508220048 10 17 1.6 3.2 0.00 0.00 0.00 94 1029.4
20260508214548 10 22 0.0 3.2 0.00 0.00 0.00 94 1029.3
20260508213047 9 29 3.2 4.8 0.00 0.00 0.00 94 1029.2
20260508211546 9 337 0.0 0.0 0.00 0.00 0.00 94 1029.1
20260508210046 8 48 0.0 0.0 0.00 0.00 0.00 93 1029.0
20260508204545 8 35 0.0 0.0 0.00 0.00 0.00 93 1028.9
20260508203033 8 40 0.0 3.2 0.00 0.00 0.00 93 1028.9
20260508201534 8 40 3.2 6.4 0.00 0.00 0.00 93 1028.6
20260508200033 8 76 0.0 1.6 0.00 0.00 0.00 93 1028.5
20260508194533 8 48 0.0 3.2 0.00 0.00 0.00 93 1028.4
20260508193025 8 31 1.6 3.2 0.00 0.00 0.00 91 1028.3
20260508191533 8 93 1.6 4.8 0.00 0.00 0.00 92 1028.1
20260508190032 8 99 3.2 3.2 0.00 0.00 0.00 92 1028.1
20260508184520 8 90 0.0 1.6 0.00 0.00 0.00 91 1028.1
20260508183005 9 96 1.6 4.8 0.00 0.00 0.00 91 1028.1
20260508181503 10 72 0.0 0.0 0.00 0.00 0.00 91 1028.3
20260508180104 10 72 0.0 0.0 0.00 0.00 0.00 90 1028.3
20260508174608 10 67 0.0 3.2 0.00 0.00 0.00 89 1028.3
20260508173055 11 85 0.0 3.2 0.00 0.00 0.00 89 1028.4
20260508171552 11 141 3.2 6.4 0.00 0.00 0.00 89 1028.4
20260508170051 11 182 4.8 8.0 0.00 0.00 0.00 90 1028.4
20260508164550 11 154 4.8 0.0 0.00 0.00 0.00 89 1028.4
20260508163053 12 154 4.8 8.0 0.00 0.00 0.00 88 1028.3
20260508161530 12 184 6.4 11.3 0.00 0.00 0.00 88 1028.4
20260508160029 12 175 9.7 14.5 0.00 0.00 0.00 88 1028.4
20260508154510 12 172 4.8 6.4 0.00 0.00 0.00 88 1028.4
20260508153008 12 188 3.2 6.4 0.00 0.00 0.00 88 1028.5
20260508151554 12 172 4.8 8.0 0.00 0.00 0.00 87 1028.5
20260508150050 12 171 8.0 12.9 0.00 0.00 0.00 88 1028.6
20260508144550 12 167 9.7 12.9 0.00 0.00 0.00 88 1028.6
20260508143047 12 174 3.2 6.4 0.00 0.00 0.00 87 1028.7
20260508141610 12 164 4.8 6.4 0.00 0.00 0.00 87 1028.8
20260508140144 12 183 1.6 8.0 0.00 0.00 0.00 86 1028.8
20260508134554 12 181 8.0 12.9 0.00 0.00 0.00 86 1028.9
20260508133038 13 168 8.0 14.5 0.00 0.00 0.00 86 1029.1
20260508131524 13 172 9.7 12.9 0.00 0.00 0.00 85 1029.1
20260508130021 13 176 1.6 6.4 0.00 0.00 0.00 84 1029.2
20260508124521 13 159 4.8 8.0 0.00 0.00 0.00 84 1029.2
20260508123027 13 154 6.4 11.3 0.00 0.00 0.00 83 1029.3
20260508121518 13 154 9.7 12.9 0.00 0.00 0.00 84 1029.3
20260508120018 13 151 6.4 9.7 0.00 0.00 0.00 85 1029.2
20260508114517 13 145 4.8 8.0 0.00 0.00 0.00 84 1029.2
20260508113016 13 154 4.8 8.0 0.00 0.00 0.00 83 1029.1
20260508111518 14 154 6.4 11.3 0.00 0.00 0.00 81 1029.0
20260508110015 14 159 8.0 14.5 0.00 0.00 0.00 80 1029.0
20260508104519 15 217 14.5 22.5 0.00 0.00 0.00 83 1028.9
20260508103016 15 200 16.1 24.1 0.00 0.00 0.00 81 1028.9
20260508101518 15 202 17.7 25.7 0.00 0.00 0.00 77 1029.0
20260508100013 15 180 11.3 17.7 0.00 0.00 0.00 78 1028.9
20260508094511 15 185 11.3 19.3 0.00 0.00 0.00 79 1028.7
20260508093014 15 167 14.5 20.9 0.00 0.00 0.00 77 1028.7
20260508091510 15 204 12.9 20.9 0.00 0.00 0.00 76 1028.6
20260508090020 15 187 16.1 22.5 0.00 0.00 0.00 79 1028.7
20260508084506 15 197 19.3 29.0 0.00 0.00 0.00 79 1028.5
20260508083006 15 187 16.1 22.5 0.00 0.00 0.00 81 1028.5
20260508081554 15 217 19.3 27.4 0.00 0.00 0.00 79 1028.4
20260508080049 15 199 19.3 27.4 0.00 0.00 0.00 81 1028.3
20260508074551 15 211 22.5 30.6 0.00 0.00 0.00 84 1028.2
20260508073048 15 175 14.5 22.5 0.00 0.00 0.00 85 1028.2
20260508071547 15 189 14.5 24.1 0.00 0.00 0.00 82 1028.2
20260508070045 15 177 16.1 25.7 0.00 0.00 0.00 85 1028.2
20260508064545 15 223 17.7 24.1 0.00 0.00 0.00 83 1028.2
20260508063048 16 204 19.3 27.4 0.00 0.00 0.00 81 1028.1
20260508061528 16 216 22.5 30.6 0.00 0.00 0.00 78 1028.2
20260508060032 16 232 24.1 33.8 0.00 0.00 0.00 77 1028.2
20260508054525 17 206 24.1 30.6 0.00 0.00 0.00 76 1028.0
20260508053033 16 215 24.1 30.6 0.00 0.00 0.00 76 1028.0
20260508051511 17 200 17.7 29.0 0.00 0.00 0.00 77 1028.1
20260508050050 16 219 16.1 25.7 0.00 0.00 0.00 80 1028.3
20260508044532 16 234 19.3 25.7 0.00 0.00 0.00 84 1028.4
20260508043029 16 213 17.7 29.0 0.00 0.00 0.00 83 1028.4
20260508041510 15 211 20.9 32.2 0.00 0.00 0.00 86 1028.6
20260508040011 15 279 12.9 24.1 0.00 0.00 0.00 89 1028.7
20260508034552 16 248 20.9 30.6 0.00 0.00 0.00 84 1028.8
20260508033050 15 217 17.7 25.7 0.00 0.00 0.00 88 1029.1
20260508031547 16 221 24.1 30.6 0.00 0.00 0.00 82 1029.2
20260508030047 16 240 16.1 29.0 0.00 0.00 0.00 81 1029.3
20260508024543 16 242 17.7 27.4 0.00 0.00 0.00 79 1029.5
20260508023043 16 230 16.1 30.6 0.00 0.00 0.00 82 1029.7
20260508021547 15 223 22.5 30.6 0.00 0.00 0.00 81 1029.8
20260508020039 16 239 16.1 24.1 0.00 0.00 0.00 76 1029.9
20260508014526 16 231 14.5 22.5 0.00 0.00 0.00 77 1030.1
20260508013033 15 215 17.7 30.6 0.00 0.00 0.00 78 1030.3
20260508011520 16 235 20.9 32.2 0.00 0.00 0.00 76 1030.5
20260508010017 15 218 12.9 22.5 0.00 0.00 0.00 77 1030.5
20260508004529 15 233 17.7 30.6 0.00 0.00 0.00 78 1030.5
20260508003012 15 225 17.7 27.4 0.00 0.00 0.00 76 1030.3